Location: LDNL
(36.4545°S, 141.6685°E)
Time: 05:03:41
(UTC+11:00)

BlueWalker 3 - Pass Details

Date: 29 September 2023
Orbit: 489 x 504 km, 53.2° (Epoch: 29 November)

Event Time Altitude Azimuth Distance (km) Brightness Sun altitude
Rises 19:26:47 0° 235° (SW) 2,609 6.9 -11.2°
Reaches altitude 10° 19:29:06 10° 243° (WSW) 1,715 6.0 -11.6°
Maximum altitude 19:32:39 35° 310° (NW) 822 3.4 -12.3°
Drops below altitude 10° 19:36:09 10° 16° (NNE) 1,686 4.3 -13.0°
Enters shadow 19:36:57 - 20° (NNE) 1,987 4.6 -13.2°
